Tracking 19475 objects as of 18-Jan-2019
HD Live streaming from Space Station
objects crossing your sky now

RADUGA 4

Track RADUGA 4 now!
RADUGA 4 is classified as:


NORAD ID: 10987
Int'l Code: 1978-073A
Perigee: 35,734.2 km
Apogee: 35,847.4 km
Inclination: 11.2 °
Period: 1,435.9 minutes
Semi major axis: 42161 km
RCS: 1 m2 (large)
Launch date: July 18, 1978
Source: Commonwealth of Independent States (former USSR) (CIS)
Launch site: TYURATAM MISSILE AND SPACE COMPLEX (TTMTR)
aabbcc
Your satellite tracking list
Your tracking list is empty




NASA's NSSDC Master Catalog

Two Line Element Set (TLE):
1 10987U 78073A   19016.92838337 -.00000334  00000-0  00000+0 0  9990
2 10987  11.1753 312.1703 0013426 327.7608 281.2294  1.00282156 92432
Source of the keplerian elements: AFSPC